Time,TemperatureF,DewpointF,PressureIn,WindDirection,WindDirectionDegrees,WindSpeedMPH,WindSpeedGustMPH,Humidity,HourlyPrecipIn,Conditions,Clouds,dailyrainin,SoftwareType,DateUTC
2013-07-20 00:01:00,77.9,72.0,29.04,WNW,292,0.0,8.0,83,0.00,,,0.00,Rainwise IP-100,2013-07-20 04:01:00,
2013-07-20 00:06:00,77.9,72.0,29.04,WNW,292,0.0,8.0,83,0.00,,,0.00,Rainwise IP-100,2013-07-20 04:06:00,
2013-07-20 00:11:00,78.3,72.0,29.04,WNW,292,0.0,1.0,81,0.00,,,0.00,Rainwise IP-100,2013-07-20 04:11:00,
2013-07-20 00:16:00,78.7,71.0,29.04,West,270,0.0,1.0,79,0.00,,,0.00,Rainwise IP-100,2013-07-20 04:16:00,
2013-07-20 00:21:00,78.7,71.0,29.05,WNW,292,0.0,9.0,77,0.00,,,0.00,Rainwise IP-100,2013-07-20 04:21:00,
2013-07-20 00:26:00,78.7,71.0,29.04,WSW,247,0.0,8.0,77,0.00,,,0.00,Rainwise IP-100,2013-07-20 04:26:00,
2013-07-20 00:31:00,78.4,71.0,29.04,WNW,292,0.0,8.0,78,0.00,,,0.00,Rainwise IP-100,2013-07-20 04:31:00,
2013-07-20 00:36:00,78.1,71.0,29.04,WNW,292,0.0,7.0,79,0.00,,,0.00,Rainwise IP-100,2013-07-20 04:36:00,
2013-07-20 00:41:00,77.9,71.0,29.04,West,270,0.0,9.0,80,0.00,,,0.00,Rainwise IP-100,2013-07-20 04:41:00,
2013-07-20 00:46:00,77.8,71.0,29.03,WNW,292,0.0,6.0,81,0.00,,,0.00,Rainwise IP-100,2013-07-20 04:46:00,
2013-07-20 00:51:00,77.7,71.0,29.03,WNW,292,0.0,7.0,81,0.00,,,0.00,Rainwise IP-100,2013-07-20 04:51:00,
2013-07-20 00:56:00,77.7,72.0,29.04,WNW,292,0.0,6.0,82,0.00,,,0.00,Rainwise IP-100,2013-07-20 04:56:00,
2013-07-20 01:01:00,77.7,72.0,29.03,WNW,292,0.0,9.0,83,0.00,,,0.00,Rainwise IP-100,2013-07-20 05:01:00,
2013-07-20 01:06:00,77.5,72.0,29.04,WSW,247,0.0,9.0,84,0.00,,,0.00,Rainwise IP-100,2013-07-20 05:06:00,
2013-07-20 01:11:00,77.3,72.0,29.03,WNW,292,0.0,9.0,85,0.00,,,0.00,Rainwise IP-100,2013-07-20 05:11:00,
2013-07-20 01:16:00,77.1,72.0,29.04,WNW,292,0.0,1.0,85,0.00,,,0.00,Rainwise IP-100,2013-07-20 05:16:00,
2013-07-20 01:21:00,76.9,72.0,29.04,WNW,292,0.0,0.0,86,0.00,,,0.00,Rainwise IP-100,2013-07-20 05:21:00,
2013-07-20 01:26:00,76.9,73.0,29.04,WSW,247,0.0,1.0,87,0.00,,,0.00,Rainwise IP-100,2013-07-20 05:26:00,
2013-07-20 01:31:00,76.8,72.0,29.05,West,270,7.0,9.0,87,0.00,,,0.00,Rainwise IP-100,2013-07-20 05:31:00,
2013-07-20 01:36:00,76.7,72.0,29.04,West,270,0.0,8.0,87,0.00,,,0.00,Rainwise IP-100,2013-07-20 05:36:00,
2013-07-20 01:41:00,76.6,72.0,29.04,West,270,0.0,8.0,88,0.00,,,0.00,Rainwise IP-100,2013-07-20 05:41:00,
2013-07-20 01:46:00,76.5,72.0,29.05,WNW,292,0.0,6.0,88,0.00,,,0.00,Rainwise IP-100,2013-07-20 05:46:00,
2013-07-20 01:51:00,76.4,72.0,29.04,WNW,292,0.0,5.0,88,0.00,,,0.00,Rainwise IP-100,2013-07-20 05:51:00,
2013-07-20 01:56:00,76.4,72.0,29.04,WNW,292,0.0,5.0,88,0.00,,,0.00,Rainwise IP-100,2013-07-20 05:56:00,
2013-07-20 02:01:00,76.4,72.0,29.04,WNW,292,0.0,6.0,88,0.00,,,0.00,Rainwise IP-100,2013-07-20 06:01:00,
2013-07-20 02:06:00,76.4,72.0,29.04,SW,225,7.0,7.0,88,0.00,,,0.00,Rainwise IP-100,2013-07-20 06:06:00,
2013-07-20 02:11:00,76.4,72.0,29.04,WNW,292,5.0,5.0,87,0.00,,,0.00,Rainwise IP-100,2013-07-20 06:11:00,
2013-07-20 02:16:00,76.2,72.0,29.05,NNW,337,8.0,8.0,87,0.00,,,0.00,Rainwise IP-100,2013-07-20 06:16:00,
2013-07-20 02:21:00,76.1,71.0,29.05,North,360,6.0,6.0,87,0.00,,,0.00,Rainwise IP-100,2013-07-20 06:21:00,
2013-07-20 02:26:00,75.8,71.0,29.05,North,360,6.0,0.0,88,0.00,,,0.00,Rainwise IP-100,2013-07-20 06:26:00,
2013-07-20 02:31:00,75.5,71.0,29.05,NNW,337,8.0,8.0,88,0.00,,,0.00,Rainwise IP-100,2013-07-20 06:31:00,
2013-07-20 02:36:00,75.5,71.0,29.05,North,360,4.0,4.0,88,0.00,,,0.00,Rainwise IP-100,2013-07-20 06:36:00,
2013-07-20 02:41:00,75.5,71.0,29.04,NNW,337,0.0,4.0,88,0.00,,,0.00,Rainwise IP-100,2013-07-20 06:41:00,
2013-07-20 02:46:00,75.3,71.0,29.04,NNE,22,9.0,9.0,89,0.00,,,0.00,Rainwise IP-100,2013-07-20 06:46:00,
2013-07-20 02:51:00,75.2,71.0,29.05,NNW,337,7.0,7.0,89,0.00,,,0.00,Rainwise IP-100,2013-07-20 06:51:00,
2013-07-20 02:56:00,75.0,71.0,29.05,North,360,7.0,0.0,89,0.00,,,0.00,Rainwise IP-100,2013-07-20 06:56:00,
2013-07-20 03:01:00,74.8,71.0,29.04,NNW,337,6.0,6.0,90,0.00,,,0.00,Rainwise IP-100,2013-07-20 07:01:00,
2013-07-20 03:06:00,74.7,71.0,29.05,NNW,337,2.0,2.0,90,0.00,,,0.00,Rainwise IP-100,2013-07-20 07:06:00,
2013-07-20 03:11:00,74.5,72.0,29.05,NNE,22,4.0,9.0,91,0.00,,,0.00,Rainwise IP-100,2013-07-20 07:11:00,
2013-07-20 03:16:00,74.4,71.0,29.05,North,360,7.0,8.0,91,0.00,,,0.00,Rainwise IP-100,2013-07-20 07:16:00,
2013-07-20 03:21:00,74.4,72.0,29.06,NNE,22,6.0,7.0,92,0.00,,,0.00,Rainwise IP-100,2013-07-20 07:21:00,
2013-07-20 03:26:00,74.3,72.0,29.06,North,360,6.0,9.0,93,0.00,,,0.00,Rainwise IP-100,2013-07-20 07:26:00,
2013-07-20 03:31:00,74.3,72.0,29.05,North,360,7.0,9.0,92,0.00,,,0.00,Rainwise IP-100,2013-07-20 07:31:00,
2013-07-20 03:36:00,74.3,71.0,29.05,NNE,22,4.0,9.0,91,0.00,,,0.00,Rainwise IP-100,2013-07-20 07:36:00,
2013-07-20 03:41:00,74.4,71.0,29.05,NNE,22,6.0,6.0,89,0.00,,,0.00,Rainwise IP-100,2013-07-20 07:41:00,
2013-07-20 03:46:00,74.3,70.0,29.06,NNE,22,0.0,9.0,87,0.00,,,0.00,Rainwise IP-100,2013-07-20 07:46:00,
2013-07-20 03:51:00,74.0,70.0,29.06,NNE,22,7.0,7.0,87,0.00,,,0.00,Rainwise IP-100,2013-07-20 07:51:00,
2013-07-20 03:56:00,73.7,69.0,29.06,NNE,22,9.0,0.0,87,0.00,,,0.00,Rainwise IP-100,2013-07-20 07:56:00,
2013-07-20 04:01:00,73.4,69.0,29.06,North,360,5.0,0.0,87,0.00,,,0.00,Rainwise IP-100,2013-07-20 08:01:00,
2013-07-20 04:06:00,73.1,69.0,29.06,NE,45,5.0,5.0,88,0.00,,,0.00,Rainwise IP-100,2013-07-20 08:06:00,
2013-07-20 04:11:00,72.9,69.0,29.06,WNW,292,3.0,9.0,88,0.00,,,0.00,Rainwise IP-100,2013-07-20 08:11:00,
2013-07-20 04:16:00,72.6,69.0,29.06,NNW,337,2.0,2.0,88,0.00,,,0.00,Rainwise IP-100,2013-07-20 08:16:00,
2013-07-20 04:21:00,72.5,69.0,29.06,East,90,5.0,5.0,88,0.00,,,0.00,Rainwise IP-100,2013-07-20 08:21:00,
2013-07-20 04:26:00,72.4,68.0,29.07,ENE,67,3.0,3.0,88,0.00,,,0.00,Rainwise IP-100,2013-07-20 08:26:00,
2013-07-20 04:31:00,72.2,68.0,29.07,ENE,67,9.0,9.0,88,0.00,,,0.00,Rainwise IP-100,2013-07-20 08:31:00,
2013-07-20 04:36:00,72.1,68.0,29.07,ENE,67,6.0,6.0,89,0.00,,,0.00,Rainwise IP-100,2013-07-20 08:36:00,
2013-07-20 04:41:00,72.0,68.0,29.07,ENE,67,7.0,7.0,88,0.00,,,0.00,Rainwise IP-100,2013-07-20 08:41:00,
2013-07-20 04:46:00,72.0,68.0,29.06,ENE,67,0.0,3.0,88,0.00,,,0.00,Rainwise IP-100,2013-07-20 08:46:00,
2013-07-20 04:51:00,71.9,68.0,29.07,NE,45,4.0,4.0,88,0.00,,,0.00,Rainwise IP-100,2013-07-20 08:51:00,
2013-07-20 04:56:00,71.7,67.0,29.06,NE,45,8.0,0.0,87,0.00,,,0.00,Rainwise IP-100,2013-07-20 08:56:00,
2013-07-20 05:01:00,71.6,67.0,29.07,ENE,67,3.0,0.0,87,0.00,,,0.00,Rainwise IP-100,2013-07-20 09:01:00,
2013-07-20 05:06:00,71.5,67.0,29.07,East,90,6.0,9.0,86,0.00,,,0.00,Rainwise IP-100,2013-07-20 09:06:00,
2013-07-20 05:11:00,71.5,67.0,29.07,ENE,67,5.0,5.0,86,0.00,,,0.00,Rainwise IP-100,2013-07-20 09:11:00,
2013-07-20 05:16:00,71.4,66.0,29.07,NE,45,6.0,7.0,85,0.00,,,0.00,Rainwise IP-100,2013-07-20 09:16:00,
2013-07-20 05:21:00,71.2,66.0,29.07,NE,45,3.0,0.0,84,0.00,,,0.00,Rainwise IP-100,2013-07-20 09:21:00,
2013-07-20 05:26:00,71.2,66.0,29.06,ESE,112,8.0,8.0,84,0.00,,,0.00,Rainwise IP-100,2013-07-20 09:26:00,
2013-07-20 05:31:00,71.0,65.0,29.07,NE,45,7.0,0.0,83,0.00,,,0.00,Rainwise IP-100,2013-07-20 09:31:00,
2013-07-20 05:36:00,70.9,65.0,29.07,ENE,67,5.0,0.0,83,0.00,,,0.00,Rainwise IP-100,2013-07-20 09:36:00,
2013-07-20 05:41:00,70.8,65.0,29.07,NNE,22,3.0,0.0,82,0.00,,,0.00,Rainwise IP-100,2013-07-20 09:41:00,
2013-07-20 05:46:00,70.7,65.0,29.07,ENE,67,1.0,0.0,82,0.00,,,0.00,Rainwise IP-100,2013-07-20 09:46:00,
2013-07-20 05:51:00,70.6,64.0,29.08,ENE,67,3.0,9.0,81,0.00,,,0.00,Rainwise IP-100,2013-07-20 09:51:00,
2013-07-20 05:56:00,70.5,64.0,29.08,ENE,67,4.0,9.0,81,0.00,,,0.00,Rainwise IP-100,2013-07-20 09:56:00,
2013-07-20 06:01:00,70.5,64.0,29.08,ESE,112,3.0,8.0,80,0.00,,,0.00,Rainwise IP-100,2013-07-20 10:01:00,
2013-07-20 06:06:00,70.3,63.0,29.09,SE,135,3.0,7.0,80,0.00,,,0.00,Rainwise IP-100,2013-07-20 10:06:00,
2013-07-20 06:11:00,70.1,64.0,29.09,ESE,112,5.0,7.0,81,0.00,,,0.00,Rainwise IP-100,2013-07-20 10:11:00,
2013-07-20 06:16:00,70.1,63.0,29.09,East,90,4.0,7.0,80,0.00,,,0.00,Rainwise IP-100,2013-07-20 10:16:00,
2013-07-20 06:21:00,70.1,63.0,29.10,East,90,5.0,8.0,80,0.00,,,0.00,Rainwise IP-100,2013-07-20 10:21:00,
2013-07-20 06:26:00,70.0,63.0,29.10,East,90,7.0,7.0,80,0.00,,,0.00,Rainwise IP-100,2013-07-20 10:26:00,
2013-07-20 06:31:00,69.9,63.0,29.09,East,90,2.0,8.0,80,0.00,,,0.00,Rainwise IP-100,2013-07-20 10:31:00,
2013-07-20 06:36:00,69.7,63.0,29.10,ENE,67,4.0,7.0,80,0.00,,,0.00,Rainwise IP-100,2013-07-20 10:36:00,
2013-07-20 06:41:00,69.7,63.0,29.10,ENE,67,5.0,8.0,80,0.00,,,0.00,Rainwise IP-100,2013-07-20 10:41:00,
2013-07-20 06:46:00,69.7,63.0,29.10,ESE,112,4.0,9.0,79,0.00,,,0.00,Rainwise IP-100,2013-07-20 10:46:00,
2013-07-20 06:51:00,69.7,63.0,29.10,East,90,6.0,7.0,79,0.00,,,0.00,Rainwise IP-100,2013-07-20 10:51:00,
2013-07-20 06:56:00,69.7,62.0,29.10,ESE,112,3.0,9.0,78,0.00,,,0.00,Rainwise IP-100,2013-07-20 10:56:00,
2013-07-20 07:01:00,69.7,62.0,29.11,East,90,5.0,0.0,78,0.00,,,0.00,Rainwise IP-100,2013-07-20 11:01:00,
2013-07-20 07:06:00,69.9,62.0,29.11,ENE,67,5.0,9.0,77,0.00,,,0.00,Rainwise IP-100,2013-07-20 11:06:00,
2013-07-20 07:11:00,70.0,62.0,29.11,East,90,3.0,8.0,77,0.00,,,0.00,Rainwise IP-100,2013-07-20 11:11:00,
2013-07-20 07:16:00,70.0,62.0,29.11,ESE,112,3.0,7.0,77,0.00,,,0.00,Rainwise IP-100,2013-07-20 11:16:00,
2013-07-20 07:21:00,69.9,62.0,29.11,ESE,112,4.0,6.0,77,0.00,,,0.00,Rainwise IP-100,2013-07-20 11:21:00,
2013-07-20 07:26:00,69.8,62.0,29.11,East,90,3.0,4.0,78,0.00,,,0.00,Rainwise IP-100,2013-07-20 11:26:00,
2013-07-20 07:31:00,69.7,63.0,29.12,ESE,112,3.0,7.0,79,0.00,,,0.00,Rainwise IP-100,2013-07-20 11:31:00,
2013-07-20 07:36:00,69.8,62.0,29.11,ENE,67,4.0,5.0,78,0.00,,,0.00,Rainwise IP-100,2013-07-20 11:36:00,
2013-07-20 07:41:00,69.9,63.0,29.12,East,90,5.0,6.0,78,0.00,,,0.00,Rainwise IP-100,2013-07-20 11:41:00,
2013-07-20 07:46:00,70.3,62.0,29.12,ESE,112,4.0,6.0,77,0.00,,,0.00,Rainwise IP-100,2013-07-20 11:46:00,
2013-07-20 07:51:00,70.5,63.0,29.12,ENE,67,3.0,6.0,77,0.00,,,0.00,Rainwise IP-100,2013-07-20 11:51:00,
2013-07-20 07:56:00,70.7,63.0,29.13,East,90,4.0,7.0,77,0.00,,,0.00,Rainwise IP-100,2013-07-20 11:56:00,
2013-07-20 08:01:00,70.9,63.0,29.12,East,90,4.0,6.0,76,0.00,,,0.00,Rainwise IP-100,2013-07-20 12:01:00,
2013-07-20 08:06:00,71.2,63.0,29.12,East,90,3.0,7.0,75,0.00,,,0.00,Rainwise IP-100,2013-07-20 12:06:00,
2013-07-20 08:11:00,71.4,62.0,29.13,ENE,67,5.0,6.0,74,0.00,,,0.00,Rainwise IP-100,2013-07-20 12:11:00,
2013-07-20 08:16:00,71.7,63.0,29.13,East,90,8.0,8.0,74,0.00,,,0.00,Rainwise IP-100,2013-07-20 12:16:00,
2013-07-20 08:21:00,72.0,63.0,29.13,NE,45,4.0,7.0,73,0.00,,,0.00,Rainwise IP-100,2013-07-20 12:21:00,
2013-07-20 08:26:00,72.4,63.0,29.13,NE,45,2.0,6.0,73,0.00,,,0.00,Rainwise IP-100,2013-07-20 12:26:00,
2013-07-20 08:31:00,72.7,63.0,29.14,ENE,67,3.0,8.0,72,0.00,,,0.00,Rainwise IP-100,2013-07-20 12:31:00,
2013-07-20 08:36:00,73.0,63.0,29.13,East,90,3.0,6.0,71,0.00,,,0.00,Rainwise IP-100,2013-07-20 12:36:00,
2013-07-20 08:41:00,73.3,63.0,29.13,ESE,112,6.0,7.0,70,0.00,,,0.00,Rainwise IP-100,2013-07-20 12:41:00,
2013-07-20 08:46:00,73.6,63.0,29.14,ESE,112,1.0,7.0,70,0.00,,,0.00,Rainwise IP-100,2013-07-20 12:46:00,
2013-07-20 08:51:00,73.9,64.0,29.13,ENE,67,3.0,7.0,70,0.00,,,0.00,Rainwise IP-100,2013-07-20 12:51:00,
2013-07-20 08:56:00,74.2,63.0,29.14,East,90,1.0,8.0,69,0.00,,,0.00,Rainwise IP-100,2013-07-20 12:56:00,
2013-07-20 09:01:00,74.5,63.0,29.14,ENE,67,5.0,7.0,68,0.00,,,0.00,Rainwise IP-100,2013-07-20 13:01:00,
2013-07-20 09:06:00,75.0,63.0,29.14,ESE,112,1.0,6.0,67,0.00,,,0.00,Rainwise IP-100,2013-07-20 13:06:00,
2013-07-20 09:11:00,75.3,63.0,29.14,East,90,7.0,7.0,66,0.00,,,0.00,Rainwise IP-100,2013-07-20 13:11:00,
2013-07-20 09:16:00,75.4,62.0,29.14,East,90,6.0,7.0,64,0.00,,,0.00,Rainwise IP-100,2013-07-20 13:16:00,
2013-07-20 09:21:00,75.6,62.0,29.14,ESE,112,5.0,7.0,63,0.00,,,0.00,Rainwise IP-100,2013-07-20 13:21:00,
2013-07-20 09:26:00,76.1,62.0,29.15,East,90,5.0,8.0,62,0.00,,,0.00,Rainwise IP-100,2013-07-20 13:26:00,
2013-07-20 09:31:00,76.3,62.0,29.14,ESE,112,4.0,7.0,62,0.00,,,0.00,Rainwise IP-100,2013-07-20 13:31:00,
2013-07-20 09:36:00,76.6,62.0,29.14,ESE,112,3.0,7.0,62,0.00,,,0.00,Rainwise IP-100,2013-07-20 13:36:00,
2013-07-20 09:41:00,77.1,62.0,29.14,ESE,112,5.0,8.0,60,0.00,,,0.00,Rainwise IP-100,2013-07-20 13:41:00,
2013-07-20 09:46:00,77.2,62.0,29.15,ESE,112,3.0,7.0,59,0.00,,,0.00,Rainwise IP-100,2013-07-20 13:46:00,
2013-07-20 09:51:00,77.3,62.0,29.14,East,90,5.0,7.0,59,0.00,,,0.00,Rainwise IP-100,2013-07-20 13:51:00,
2013-07-20 09:56:00,77.6,62.0,29.15,ESE,112,8.0,8.0,58,0.00,,,0.00,Rainwise IP-100,2013-07-20 13:56:00,
2013-07-20 10:01:00,77.9,61.0,29.14,ESE,112,2.0,7.0,57,0.00,,,0.00,Rainwise IP-100,2013-07-20 14:01:00,
2013-07-20 10:06:00,78.1,61.0,29.14,ESE,112,6.0,7.0,56,0.00,,,0.00,Rainwise IP-100,2013-07-20 14:06:00,
2013-07-20 10:11:00,78.5,61.0,29.14,ESE,112,3.0,7.0,55,0.00,,,0.00,Rainwise IP-100,2013-07-20 14:11:00,
2013-07-20 10:16:00,78.8,60.0,29.14,ESE,112,2.0,6.0,54,0.00,,,0.00,Rainwise IP-100,2013-07-20 14:16:00,
2013-07-20 10:21:00,79.1,60.0,29.14,ESE,112,8.0,0.0,52,0.00,,,0.00,Rainwise IP-100,2013-07-20 14:21:00,
2013-07-20 10:26:00,79.2,60.0,29.15,East,90,7.0,9.0,51,0.00,,,0.00,Rainwise IP-100,2013-07-20 14:26:00,
2013-07-20 10:31:00,79.2,59.0,29.15,SE,135,4.0,8.0,50,0.00,,,0.00,Rainwise IP-100,2013-07-20 14:31:00,
2013-07-20 10:36:00,79.6,59.0,29.15,South,180,2.0,6.0,49,0.00,,,0.00,Rainwise IP-100,2013-07-20 14:36:00,
2013-07-20 10:41:00,80.2,59.0,29.15,ESE,112,2.0,5.0,49,0.00,,,0.00,Rainwise IP-100,2013-07-20 14:41:00,
2013-07-20 10:46:00,80.7,59.0,29.15,East,90,2.0,4.0,48,0.00,,,0.00,Rainwise IP-100,2013-07-20 14:46:00,
2013-07-20 10:51:00,80.9,59.0,29.15,SSE,157,0.0,3.0,47,0.00,,,0.00,Rainwise IP-100,2013-07-20 14:51:00,
2013-07-20 10:56:00,80.9,59.0,29.15,WSW,247,3.0,4.0,47,0.00,,,0.00,Rainwise IP-100,2013-07-20 14:56:00,
2013-07-20 11:01:00,81.3,59.0,29.16,NW,315,0.0,6.0,46,0.00,,,0.00,Rainwise IP-100,2013-07-20 15:01:00,
2013-07-20 11:06:00,81.4,58.0,29.16,WNW,292,7.0,8.0,45,0.00,,,0.00,Rainwise IP-100,2013-07-20 15:06:00,
2013-07-20 11:11:00,80.7,57.0,29.16,West,270,2.0,0.0,44,0.00,,,0.00,Rainwise IP-100,2013-07-20 15:11:00,
2013-07-20 11:16:00,80.2,57.0,29.16,WNW,292,4.0,7.0,46,0.00,,,0.00,Rainwise IP-100,2013-07-20 15:16:00,
2013-07-20 11:21:00,80.2,58.0,29.16,WNW,292,6.0,7.0,47,0.00,,,0.00,Rainwise IP-100,2013-07-20 15:21:00,
2013-07-20 11:26:00,80.3,58.0,29.16,WNW,292,4.0,8.0,47,0.00,,,0.00,Rainwise IP-100,2013-07-20 15:26:00,
2013-07-20 11:31:00,80.1,57.0,29.16,WNW,292,7.0,9.0,47,0.00,,,0.00,Rainwise IP-100,2013-07-20 15:31:00,
2013-07-20 11:36:00,80.0,57.0,29.16,WNW,292,5.0,9.0,46,0.00,,,0.00,Rainwise IP-100,2013-07-20 15:36:00,
2013-07-20 11:41:00,80.1,57.0,29.16,West,270,0.0,9.0,46,0.00,,,0.00,Rainwise IP-100,2013-07-20 15:41:00,
2013-07-20 11:46:00,80.2,57.0,29.17,West,270,5.0,0.0,46,0.00,,,0.00,Rainwise IP-100,2013-07-20 15:46:00,
2013-07-20 11:51:00,80.2,57.0,29.17,WNW,292,9.0,0.0,46,0.00,,,0.00,Rainwise IP-100,2013-07-20 15:51:00,
2013-07-20 11:56:00,80.1,57.0,29.16,West,270,8.0,0.0,46,0.00,,,0.00,Rainwise IP-100,2013-07-20 15:56:00,
2013-07-20 12:01:00,80.0,57.0,29.16,West,270,0.0,1.0,47,0.00,,,0.00,Rainwise IP-100,2013-07-20 16:01:00,
2013-07-20 12:06:00,79.6,58.0,29.17,West,270,9.0,9.0,48,0.00,,,0.00,Rainwise IP-100,2013-07-20 16:06:00,
2013-07-20 12:11:00,78.9,59.0,29.17,West,270,0.0,2.0,50,0.00,,,0.00,Rainwise IP-100,2013-07-20 16:11:00,
2013-07-20 12:16:00,78.6,60.0,29.17,West,270,0.0,2.0,53,0.00,,,0.00,Rainwise IP-100,2013-07-20 16:16:00,
2013-07-20 12:21:00,79.0,60.0,29.17,West,270,0.0,2.0,53,0.00,,,0.00,Rainwise IP-100,2013-07-20 16:21:00,
2013-07-20 12:26:00,79.4,60.0,29.17,West,270,9.0,9.0,51,0.00,,,0.00,Rainwise IP-100,2013-07-20 16:26:00,
2013-07-20 12:31:00,79.4,59.0,29.17,West,270,0.0,1.0,50,0.00,,,0.00,Rainwise IP-100,2013-07-20 16:31:00,
2013-07-20 12:36:00,79.5,60.0,29.17,West,270,8.0,8.0,52,0.00,,,0.00,Rainwise IP-100,2013-07-20 16:36:00,
2013-07-20 12:41:00,79.4,61.0,29.17,West,270,0.0,3.0,53,0.00,,,0.00,Rainwise IP-100,2013-07-20 16:41:00,
2013-07-20 12:46:00,79.3,61.0,29.17,WSW,247,7.0,7.0,54,0.00,,,0.00,Rainwise IP-100,2013-07-20 16:46:00,
2013-07-20 12:51:00,79.6,61.0,29.17,WNW,292,8.0,8.0,53,0.00,,,0.00,Rainwise IP-100,2013-07-20 16:51:00,
2013-07-20 12:56:00,79.6,60.0,29.17,West,270,0.0,5.0,52,0.00,,,0.00,Rainwise IP-100,2013-07-20 16:56:00,
2013-07-20 13:01:00,79.6,61.0,29.17,West,270,0.0,4.0,53,0.00,,,0.00,Rainwise IP-100,2013-07-20 17:01:00,
2013-07-20 13:06:00,79.2,63.0,29.17,West,270,0.0,5.0,57,0.00,,,0.00,Rainwise IP-100,2013-07-20 17:06:00,
2013-07-20 13:11:00,78.9,64.0,29.17,WNW,292,0.0,5.0,60,0.00,,,0.00,Rainwise IP-100,2013-07-20 17:11:00,
2013-07-20 13:16:00,78.5,64.0,29.17,West,270,0.0,6.0,62,0.00,,,0.00,Rainwise IP-100,2013-07-20 17:16:00,
2013-07-20 13:21:00,78.2,66.0,29.17,WSW,247,0.0,5.0,65,0.00,,,0.00,Rainwise IP-100,2013-07-20 17:21:00,
2013-07-20 13:26:00,78.2,66.0,29.18,WNW,292,9.0,9.0,66,0.00,,,0.00,Rainwise IP-100,2013-07-20 17:26:00,
2013-07-20 13:31:00,78.4,66.0,29.18,WSW,247,7.0,7.0,66,0.00,,,0.00,Rainwise IP-100,2013-07-20 17:31:00,
2013-07-20 13:36:00,78.3,66.0,29.18,West,270,0.0,5.0,66,0.00,,,0.00,Rainwise IP-100,2013-07-20 17:36:00,
2013-07-20 13:41:00,78.0,66.0,29.18,WNW,292,0.0,6.0,67,0.00,,,0.00,Rainwise IP-100,2013-07-20 17:41:00,
2013-07-20 13:46:00,78.0,66.0,29.18,West,270,0.0,4.0,68,0.00,,,0.00,Rainwise IP-100,2013-07-20 17:46:00,
2013-07-20 13:51:00,78.0,66.0,29.18,WNW,292,9.0,9.0,68,0.00,,,0.00,Rainwise IP-100,2013-07-20 17:51:00,
2013-07-20 13:56:00,77.7,66.0,29.18,West,270,9.0,9.0,68,0.00,,,0.00,Rainwise IP-100,2013-07-20 17:56:00,
2013-07-20 14:01:00,77.3,66.0,29.18,WNW,292,0.0,4.0,68,0.00,,,0.00,Rainwise IP-100,2013-07-20 18:01:00,
2013-07-20 14:06:00,77.0,66.0,29.18,West,270,0.0,4.0,69,0.00,,,0.00,Rainwise IP-100,2013-07-20 18:06:00,
2013-07-20 14:11:00,76.9,66.0,29.17,West,270,0.0,4.0,69,0.00,,,0.00,Rainwise IP-100,2013-07-20 18:11:00,
2013-07-20 14:16:00,76.8,65.0,29.17,West,270,0.0,6.0,68,0.00,,,0.00,Rainwise IP-100,2013-07-20 18:16:00,
2013-07-20 14:21:00,76.9,66.0,29.18,WNW,292,0.0,4.0,69,0.00,,,0.00,Rainwise IP-100,2013-07-20 18:21:00,
2013-07-20 14:26:00,77.2,66.0,29.18,West,270,0.0,4.0,69,0.00,,,0.00,Rainwise IP-100,2013-07-20 18:26:00,
2013-07-20 14:31:00,77.3,66.0,29.17,West,270,0.0,7.0,68,0.00,,,0.00,Rainwise IP-100,2013-07-20 18:31:00,
2013-07-20 14:36:00,77.4,66.0,29.17,West,270,0.0,6.0,69,0.00,,,0.00,Rainwise IP-100,2013-07-20 18:36:00,
2013-07-20 14:41:00,77.7,67.0,29.18,West,270,9.0,9.0,70,0.00,,,0.00,Rainwise IP-100,2013-07-20 18:41:00,
2013-07-20 14:46:00,77.9,67.0,29.17,WSW,247,8.0,8.0,69,0.00,,,0.00,Rainwise IP-100,2013-07-20 18:46:00,
2013-07-20 14:51:00,78.2,67.0,29.17,West,270,9.0,9.0,69,0.00,,,0.00,Rainwise IP-100,2013-07-20 18:51:00,
2013-07-20 14:56:00,78.2,67.0,29.17,West,270,0.0,4.0,69,0.00,,,0.00,Rainwise IP-100,2013-07-20 18:56:00,
2013-07-20 15:01:00,77.9,66.0,29.17,WSW,247,0.0,4.0,68,0.00,,,0.00,Rainwise IP-100,2013-07-20 19:01:00,
2013-07-20 15:06:00,78.0,66.0,29.18,WNW,292,0.0,5.0,68,0.00,,,0.00,Rainwise IP-100,2013-07-20 19:06:00,
2013-07-20 15:11:00,77.9,67.0,29.18,WNW,292,0.0,5.0,69,0.00,,,0.00,Rainwise IP-100,2013-07-20 19:11:00,
2013-07-20 15:16:00,77.7,66.0,29.18,WNW,292,0.0,4.0,69,0.00,,,0.00,Rainwise IP-100,2013-07-20 19:16:00,
2013-07-20 15:21:00,77.7,66.0,29.17,WNW,292,0.0,5.0,69,0.00,,,0.00,Rainwise IP-100,2013-07-20 19:21:00,
2013-07-20 15:26:00,77.4,66.0,29.17,WNW,292,0.0,6.0,69,0.00,,,0.00,Rainwise IP-100,2013-07-20 19:26:00,
2013-07-20 15:31:00,77.1,66.0,29.17,WNW,292,0.0,7.0,70,0.00,,,0.00,Rainwise IP-100,2013-07-20 19:31:00,
2013-07-20 15:36:00,77.1,66.0,29.18,West,270,5.0,9.0,70,0.00,,,0.00,Rainwise IP-100,2013-07-20 19:36:00,
2013-07-20 15:41:00,77.4,67.0,29.17,NW,315,0.0,7.0,70,0.00,,,0.00,Rainwise IP-100,2013-07-20 19:41:00,
2013-07-20 15:46:00,77.7,66.0,29.18,NNW,337,3.0,7.0,69,0.00,,,0.00,Rainwise IP-100,2013-07-20 19:46:00,
2013-07-20 15:51:00,78.0,67.0,29.17,NNW,337,0.0,5.0,70,0.00,,,0.00,Rainwise IP-100,2013-07-20 19:51:00,
2013-07-20 15:56:00,77.9,68.0,29.17,NW,315,9.0,9.0,72,0.00,,,0.00,Rainwise IP-100,2013-07-20 19:56:00,
2013-07-20 16:01:00,77.0,68.0,29.17,NNW,337,0.0,7.0,74,0.00,,,0.00,Rainwise IP-100,2013-07-20 20:01:00,
2013-07-20 16:06:00,76.3,67.0,29.17,NW,315,0.0,8.0,75,0.00,,,0.00,Rainwise IP-100,2013-07-20 20:06:00,
2013-07-20 16:11:00,76.4,68.0,29.17,NNW,337,4.0,6.0,75,0.00,,,0.00,Rainwise IP-100,2013-07-20 20:11:00,
2013-07-20 16:16:00,76.8,68.0,29.17,NNE,22,8.0,8.0,75,0.00,,,0.00,Rainwise IP-100,2013-07-20 20:16:00,
2013-07-20 16:21:00,77.1,68.0,29.17,WNW,292,8.0,8.0,74,0.00,,,0.00,Rainwise IP-100,2013-07-20 20:21:00,
2013-07-20 16:26:00,77.3,68.0,29.17,NW,315,0.0,6.0,73,0.00,,,0.00,Rainwise IP-100,2013-07-20 20:26:00,
2013-07-20 16:31:00,76.9,67.0,29.17,NNW,337,9.0,9.0,72,0.00,,,0.00,Rainwise IP-100,2013-07-20 20:31:00,
2013-07-20 16:36:00,76.7,67.0,29.18,North,360,9.0,9.0,72,0.00,,,0.00,Rainwise IP-100,2013-07-20 20:36:00,
2013-07-20 16:41:00,76.8,66.0,29.17,NNW,337,5.0,5.0,71,0.00,,,0.00,Rainwise IP-100,2013-07-20 20:41:00,
2013-07-20 16:46:00,77.0,67.0,29.17,NW,315,0.0,5.0,72,0.00,,,0.00,Rainwise IP-100,2013-07-20 20:46:00,
2013-07-20 16:51:00,77.1,67.0,29.17,North,360,6.0,6.0,71,0.00,,,0.00,Rainwise IP-100,2013-07-20 20:51:00,
2013-07-20 16:56:00,76.8,66.0,29.16,North,360,0.0,6.0,71,0.00,,,0.00,Rainwise IP-100,2013-07-20 20:56:00,
2013-07-20 17:01:00,76.4,66.0,29.17,NNW,337,0.0,6.0,72,0.00,,,0.00,Rainwise IP-100,2013-07-20 21:01:00,
2013-07-20 17:06:00,76.3,66.0,29.16,NNW,337,0.0,6.0,73,0.00,,,0.00,Rainwise IP-100,2013-07-20 21:06:00,
2013-07-20 17:11:00,76.3,66.0,29.16,NNW,337,0.0,7.0,73,0.00,,,0.00,Rainwise IP-100,2013-07-20 21:11:00,
2013-07-20 17:16:00,76.4,66.0,29.16,NNW,337,0.0,6.0,72,0.00,,,0.00,Rainwise IP-100,2013-07-20 21:16:00,
2013-07-20 17:21:00,76.5,66.0,29.16,NNW,337,0.0,8.0,71,0.00,,,0.00,Rainwise IP-100,2013-07-20 21:21:00,
2013-07-20 17:26:00,76.6,66.0,29.16,NNW,337,0.0,7.0,70,0.00,,,0.00,Rainwise IP-100,2013-07-20 21:26:00,
2013-07-20 17:31:00,76.7,66.0,29.16,NNW,337,0.0,4.0,70,0.00,,,0.00,Rainwise IP-100,2013-07-20 21:31:00,
2013-07-20 17:36:00,76.8,66.0,29.16,NNW,337,0.0,6.0,70,0.00,,,0.00,Rainwise IP-100,2013-07-20 21:36:00,
2013-07-20 17:41:00,76.7,66.0,29.16,NNW,337,9.0,9.0,70,0.00,,,0.00,Rainwise IP-100,2013-07-20 21:41:00,
2013-07-20 17:46:00,76.5,66.0,29.16,NW,315,5.0,5.0,72,0.00,,,0.00,Rainwise IP-100,2013-07-20 21:46:00,
2013-07-20 17:51:00,76.5,67.0,29.16,NNW,337,8.0,8.0,73,0.00,,,0.00,Rainwise IP-100,2013-07-20 21:51:00,
2013-07-20 17:56:00,76.5,67.0,29.17,NNW,337,8.0,8.0,73,0.00,,,0.00,Rainwise IP-100,2013-07-20 21:56:00,
2013-07-20 18:01:00,76.3,66.0,29.16,NNW,337,0.0,8.0,73,0.00,,,0.00,Rainwise IP-100,2013-07-20 22:01:00,
2013-07-20 18:06:00,76.1,66.0,29.16,NNW,337,7.0,8.0,73,0.00,,,0.00,Rainwise IP-100,2013-07-20 22:06:00,
2013-07-20 18:11:00,76.0,66.0,29.16,NW,315,7.0,7.0,72,0.00,,,0.00,Rainwise IP-100,2013-07-20 22:11:00,
2013-07-20 18:16:00,75.9,66.0,29.15,North,360,0.0,8.0,71,0.00,,,0.00,Rainwise IP-100,2013-07-20 22:16:00,
2013-07-20 18:21:00,75.8,64.0,29.16,NNW,337,7.0,9.0,69,0.00,,,0.00,Rainwise IP-100,2013-07-20 22:21:00,
2013-07-20 18:26:00,75.9,65.0,29.15,North,360,8.0,8.0,69,0.00,,,0.00,Rainwise IP-100,2013-07-20 22:26:00,
2013-07-20 18:31:00,76.0,65.0,29.16,NNW,337,6.0,8.0,70,0.00,,,0.00,Rainwise IP-100,2013-07-20 22:31:00,
2013-07-20 18:36:00,75.9,65.0,29.15,NNW,337,0.0,7.0,70,0.00,,,0.00,Rainwise IP-100,2013-07-20 22:36:00,
2013-07-20 18:41:00,75.7,65.0,29.16,NW,315,9.0,9.0,70,0.00,,,0.00,Rainwise IP-100,2013-07-20 22:41:00,
2013-07-20 18:46:00,75.6,65.0,29.15,NNE,22,0.0,7.0,70,0.00,,,0.00,Rainwise IP-100,2013-07-20 22:46:00,
2013-07-20 18:51:00,75.7,64.0,29.15,NNW,337,0.0,6.0,69,0.00,,,0.00,Rainwise IP-100,2013-07-20 22:51:00,
2013-07-20 18:56:00,75.8,64.0,29.16,NNW,337,4.0,5.0,69,0.00,,,0.00,Rainwise IP-100,2013-07-20 22:56:00,
2013-07-20 19:01:00,75.8,64.0,29.16,NNW,337,6.0,6.0,68,0.00,,,0.00,Rainwise IP-100,2013-07-20 23:01:00,
2013-07-20 19:06:00,76.1,63.0,29.16,North,360,9.0,9.0,64,0.00,,,0.00,Rainwise IP-100,2013-07-20 23:06:00,
2013-07-20 19:11:00,76.6,62.0,29.16,NNW,337,7.0,7.0,62,0.00,,,0.00,Rainwise IP-100,2013-07-20 23:11:00,
2013-07-20 19:16:00,77.0,62.0,29.17,NNW,337,0.0,3.0,61,0.00,,,0.00,Rainwise IP-100,2013-07-20 23:16:00,
2013-07-20 19:21:00,77.2,62.0,29.17,North,360,9.0,9.0,60,0.00,,,0.00,Rainwise IP-100,2013-07-20 23:21:00,
2013-07-20 19:26:00,76.7,62.0,29.16,North,360,8.0,8.0,61,0.00,,,0.00,Rainwise IP-100,2013-07-20 23:26:00,
2013-07-20 19:31:00,76.6,62.0,29.16,NNW,337,0.0,4.0,62,0.00,,,0.00,Rainwise IP-100,2013-07-20 23:31:00,
2013-07-20 19:36:00,76.5,63.0,29.16,WNW,292,7.0,7.0,63,0.00,,,0.00,Rainwise IP-100,2013-07-20 23:36:00,
2013-07-20 19:41:00,76.5,63.0,29.16,NNW,337,9.0,9.0,63,0.00,,,0.00,Rainwise IP-100,2013-07-20 23:41:00,
2013-07-20 19:46:00,76.6,63.0,29.17,NNE,22,7.0,7.0,63,0.00,,,0.00,Rainwise IP-100,2013-07-20 23:46:00,
2013-07-20 19:51:00,76.9,63.0,29.17,NNE,22,5.0,5.0,63,0.00,,,0.00,Rainwise IP-100,2013-07-20 23:51:00,
2013-07-20 19:56:00,77.1,64.0,29.17,NNW,337,0.0,1.0,64,0.00,,,0.00,Rainwise IP-100,2013-07-20 23:56:00,
2013-07-20 20:00:00,77.1,64.0,29.18,North,360,5.0,5.0,64,0.00,,,0.00,Rainwise IP-100,2013-07-21 00:00:00,
2013-07-20 20:05:00,77.0,64.0,29.18,NNW,337,4.0,4.0,64,0.00,,,0.00,Rainwise IP-100,2013-07-21 00:05:00,
2013-07-20 20:10:00,77.1,63.0,29.18,NW,315,9.0,9.0,63,0.00,,,0.00,Rainwise IP-100,2013-07-21 00:10:00,
2013-07-20 20:15:00,77.0,63.0,29.18,NNW,337,0.0,3.0,63,0.00,,,0.00,Rainwise IP-100,2013-07-21 00:15:00,
2013-07-20 20:20:00,76.9,64.0,29.18,North,360,9.0,9.0,64,0.00,,,0.00,Rainwise IP-100,2013-07-21 00:20:00,
2013-07-20 20:25:00,76.8,64.0,29.18,NNE,22,2.0,4.0,64,0.00,,,0.00,Rainwise IP-100,2013-07-21 00:25:00,
2013-07-20 20:30:00,76.8,64.0,29.17,NE,45,6.0,6.0,64,0.00,,,0.00,Rainwise IP-100,2013-07-21 00:30:00,
2013-07-20 20:35:00,77.0,64.0,29.18,North,360,0.0,1.0,64,0.00,,,0.00,Rainwise IP-100,2013-07-21 00:35:00,
2013-07-20 20:40:00,77.0,62.0,29.18,North,360,7.0,7.0,60,0.00,,,0.00,Rainwise IP-100,2013-07-21 00:40:00,
2013-07-20 20:45:00,77.1,61.0,29.18,NNE,22,2.0,3.0,58,0.00,,,0.00,Rainwise IP-100,2013-07-21 00:45:00,
2013-07-20 20:50:00,77.1,61.0,29.18,NW,315,7.0,7.0,57,0.00,,,0.00,Rainwise IP-100,2013-07-21 00:50:00,
2013-07-20 20:55:00,77.0,61.0,29.18,NNE,22,4.0,4.0,57,0.00,,,0.00,Rainwise IP-100,2013-07-21 00:55:00,
2013-07-20 21:00:00,76.8,60.0,29.18,NNE,22,3.0,6.0,57,0.00,,,0.00,Rainwise IP-100,2013-07-21 01:00:00,
2013-07-20 21:05:00,76.5,60.0,29.18,ENE,67,3.0,8.0,58,0.00,,,0.00,Rainwise IP-100,2013-07-21 01:05:00,
2013-07-20 21:10:00,76.2,60.0,29.19,North,360,2.0,6.0,58,0.00,,,0.00,Rainwise IP-100,2013-07-21 01:10:00,
2013-07-20 21:15:00,76.0,60.0,29.19,NNW,337,1.0,8.0,58,0.00,,,0.00,Rainwise IP-100,2013-07-21 01:15:00,
2013-07-20 21:20:00,75.8,60.0,29.19,NNE,22,7.0,7.0,58,0.00,,,0.00,Rainwise IP-100,2013-07-21 01:20:00,
2013-07-20 21:25:00,75.6,60.0,29.19,North,360,8.0,0.0,58,0.00,,,0.00,Rainwise IP-100,2013-07-21 01:25:00,
2013-07-20 21:30:00,75.4,59.0,29.19,NNE,22,7.0,9.0,56,0.00,,,0.00,Rainwise IP-100,2013-07-21 01:30:00,
2013-07-20 21:35:00,75.2,57.0,29.19,NNE,22,7.0,0.0,53,0.00,,,0.00,Rainwise IP-100,2013-07-21 01:35:00,
2013-07-20 21:41:00,75.1,57.0,29.19,NNE,22,9.0,9.0,53,0.00,,,0.00,Rainwise IP-100,2013-07-21 01:41:00,
2013-07-20 21:46:00,74.9,57.0,29.20,NNE,22,5.0,9.0,53,0.00,,,0.00,Rainwise IP-100,2013-07-21 01:46:00,
2013-07-20 21:51:00,74.6,56.0,29.20,NNE,22,5.0,9.0,53,0.00,,,0.00,Rainwise IP-100,2013-07-21 01:51:00,
2013-07-20 21:56:00,74.4,56.0,29.20,NNW,337,3.0,0.0,53,0.00,,,0.00,Rainwise IP-100,2013-07-21 01:56:00,
2013-07-20 22:01:00,74.2,56.0,29.21,North,360,5.0,9.0,53,0.00,,,0.00,Rainwise IP-100,2013-07-21 02:01:00,
2013-07-20 22:06:00,74.0,56.0,29.20,NNE,22,5.0,9.0,54,0.00,,,0.00,Rainwise IP-100,2013-07-21 02:06:00,
2013-07-20 22:11:00,73.8,56.0,29.21,NE,45,3.0,7.0,54,0.00,,,0.00,Rainwise IP-100,2013-07-21 02:11:00,
2013-07-20 22:16:00,73.6,56.0,29.21,NNW,337,4.0,7.0,54,0.00,,,0.00,Rainwise IP-100,2013-07-21 02:16:00,
2013-07-20 22:21:00,73.4,56.0,29.21,North,360,2.0,9.0,55,0.00,,,0.00,Rainwise IP-100,2013-07-21 02:21:00,
2013-07-20 22:26:00,73.2,56.0,29.21,NNE,22,5.0,9.0,55,0.00,,,0.00,Rainwise IP-100,2013-07-21 02:26:00,
2013-07-20 22:31:00,72.8,56.0,29.21,NNE,22,3.0,0.0,55,0.00,,,0.00,Rainwise IP-100,2013-07-21 02:31:00,
2013-07-20 22:36:00,72.6,56.0,29.21,NNE,22,6.0,9.0,55,0.00,,,0.00,Rainwise IP-100,2013-07-21 02:36:00,
2013-07-20 22:41:00,72.3,56.0,29.21,North,360,6.0,8.0,56,0.00,,,0.00,Rainwise IP-100,2013-07-21 02:41:00,
2013-07-20 22:46:00,72.0,55.0,29.21,NE,45,7.0,7.0,56,0.00,,,0.00,Rainwise IP-100,2013-07-21 02:46:00,
2013-07-20 22:51:00,71.8,55.0,29.21,NNW,337,5.0,5.0,57,0.00,,,0.00,Rainwise IP-100,2013-07-21 02:51:00,
2013-07-20 22:56:00,71.6,55.0,29.21,ENE,67,3.0,3.0,57,0.00,,,0.00,Rainwise IP-100,2013-07-21 02:56:00,
2013-07-20 23:01:00,71.4,55.0,29.22,ENE,67,5.0,5.0,57,0.00,,,0.00,Rainwise IP-100,2013-07-21 03:01:00,
2013-07-20 23:06:00,71.3,55.0,29.22,ENE,67,4.0,9.0,57,0.00,,,0.00,Rainwise IP-100,2013-07-21 03:06:00,
2013-07-20 23:11:00,71.0,54.0,29.22,NE,45,3.0,0.0,57,0.00,,,0.00,Rainwise IP-100,2013-07-21 03:11:00,
2013-07-20 23:16:00,70.8,54.0,29.22,ENE,67,5.0,0.0,57,0.00,,,0.00,Rainwise IP-100,2013-07-21 03:16:00,
2013-07-20 23:21:00,70.6,55.0,29.23,ENE,67,3.0,8.0,58,0.00,,,0.00,Rainwise IP-100,2013-07-21 03:21:00,
2013-07-20 23:26:00,70.3,54.0,29.23,ENE,67,3.0,8.0,58,0.00,,,0.00,Rainwise IP-100,2013-07-21 03:26:00,
2013-07-20 23:31:00,70.0,55.0,29.23,ENE,67,7.0,8.0,59,0.00,,,0.00,Rainwise IP-100,2013-07-21 03:31:00,
2013-07-20 23:36:00,69.7,54.0,29.23,ENE,67,5.0,8.0,59,0.00,,,0.00,Rainwise IP-100,2013-07-21 03:36:00,
2013-07-20 23:41:00,69.4,54.0,29.23,ENE,67,7.0,8.0,60,0.00,,,0.00,Rainwise IP-100,2013-07-21 03:41:00,
2013-07-20 23:46:00,69.1,54.0,29.23,East,90,4.0,8.0,61,0.00,,,0.00,Rainwise IP-100,2013-07-21 03:46:00,
2013-07-20 23:51:00,68.9,54.0,29.23,ESE,112,2.0,2.0,61,0.00,,,0.00,Rainwise IP-100,2013-07-21 03:51:00,
2013-07-20 23:56:00,68.7,54.0,29.23,ENE,67,5.0,9.0,62,0.00,,,0.00,Rainwise IP-100,2013-07-21 03:56:00,